Weather in Jolo

Philippines     6°03′27″N   121°01′42″E
temp.,
°C
wind,
m/s
gust,
m/s
humid.,
%
clouds,
%
prec.,
mm/h
press.,
hPa
HPBL,
m
9 march, tue
tue923:00+24ne118798 0.0 101266
02:00+24nne128798 0.0 101096
05:00+23wnw1188100 0.0 1010117
08:00+26w127980 0.0 1012302
11:00+31wnw115964 0.0 10121075
14:00+30wnw116265 0.0 1009935
17:00+27nw1175100 0.1 1009388
20:00+25e1184100 0.1 101156
10 march, wed
wed1023:00+24nne1186100 0.0 101259
02:00+24nne1187100 0.0 101071
05:00+24sse118777 0.0 101043
08:00+26se117688 0.0 1012195
11:00+30ssw1160100 0.0 10121048
14:00+30sw1165100 0.6 1009917
17:00+27sw1175100 0.6 1009494
20:00+25nne118699 0.8 101149
11 march, thu
thu1123:00+24n1287100 0.1 1012109
02:00+24nne128993 0.1 1010125
05:00+24n2388100 1.2 1010115
08:00+27n258188 1.3 1012634
11:00+30n32679 0.6 1012911
14:00+29n227054 1.7 1009749
17:00+26nne468397 0.3 1008658
20:00+25nne378899 0.4 1010506
12 march, fri
fri1223:00+25n3588100 0.6 1011262
02:00+25n2590100 0.9 1009239
05:00+25n2390100 0.7 1009173
08:00+27nne2582100 0.7 1011579
11:00+29n3371100 0.0 1011841
14:00+29n2373100 1.5 1008782
17:00+27n2481100 1.4 1008646
20:00+25n118999 1.4 1009116
13 march, sat
sat1323:00+25nnw1189100 0.0 1010112
02:00+24nne1190100 0.0 1008106
05:00+24sse0192100 0.0 100863
08:00+26s1181100 0.0 1009283
11:00+29wsw236865 0.3 1009893
14:00+28wsw247682 4.0 1007620
17:00+27wsw2480100 1.1 1007650
20:00+25sw239050 1.1 1009146